WA4OPQ-1 Weather Reports


Display with metric or nautical units.
time (UTC)temp
F
wind
direction
speed
MPH
gust
MPH
rain 1hr
in
rain 24hr
in
rain mn
in
humidity
%
barometer
mb
20200923105739 58 72 0.0 0.0 0.00 0.00 0.00 87 1019.5
20200923104747 58 72 0.0 0.0 0.00 0.00 0.00 87 1019.6
20200923103742 58 72 0.0 0.0 0.00 0.00 0.00 88 1019.6
20200923102738 58 72 0.0 0.0 0.00 0.00 0.00 88 1019.7
20200923101739 58 71 0.0 0.0 0.00 0.00 0.00 88 1019.5
20200923100743 58 71 0.0 0.0 0.00 0.00 0.00 89 1019.7
20200923095739 58 72 0.0 0.0 0.00 0.00 0.00 89 1019.6
20200923094738 58 71 0.0 0.0 0.00 0.00 0.00 89 1019.7
20200923093739 58 72 0.0 0.0 0.00 0.00 0.00 88 1019.8
20200923093202 58 73 0.0 0.0 0.00 0.00 0.00 88 1019.6
20200923092738 58 73 0.0 0.0 0.00 0.00 0.00 88 1019.6
20200923091810 58 77 0.0 0.0 0.00 0.00 0.00 89 1019.5
20200923091739 58 77 0.0 0.0 0.00 0.00 0.00 89 1019.5
20200923090746 58 75 0.0 0.0 0.00 0.00 0.00 88 1019.6
20200923085740 58 74 0.0 0.0 0.00 0.00 0.00 88 1019.6
20200923084739 58 73 0.0 0.0 0.00 0.00 0.00 87 1019.5
20200923083811 58 74 0.0 0.0 0.00 0.00 0.00 88 1019.6
20200923083738 58 74 0.0 0.0 0.00 0.00 0.00 88 1019.6
20200923082738 58 74 0.0 0.0 0.00 0.00 0.00 88 1019.8
20200923081742 58 73 0.0 0.0 0.00 0.00 0.00 88 1019.8
20200923080740 58 72 0.0 0.0 0.00 0.00 0.00 88 1020.0
20200923075739 58 72 0.0 0.0 0.00 0.00 0.00 88 1019.9
20200923074742 58 72 0.0 0.0 0.00 0.00 0.00 89 1019.9
20200923073743 58 73 0.0 0.0 0.00 0.00 0.00 88 1020.2
20200923072739 58 72 0.0 0.0 0.00 0.00 0.00 88 1020.0
20200923071738 58 73 0.0 0.0 0.00 0.00 0.00 88 1020.2
20200923070738 58 73 0.0 0.0 0.00 0.00 0.00 89 1020.2
20200923065740 58 72 0.0 0.0 0.00 0.00 0.00 89 1020.2
20200923064738 58 73 0.0 0.0 0.00 0.00 0.00 89 1020.2
20200923063738 58 72 0.0 0.0 0.00 0.00 0.00 89 1020.2
20200923062745 58 73 0.0 0.0 0.00 0.00 0.00 89 1020.1
20200923061738 58 72 0.0 0.0 0.00 0.00 0.00 89 1020.1
20200923060745 58 73 0.0 0.0 0.00 0.00 0.00 88 1020.2
20200923055738 59 74 0.0 0.0 0.00 0.00 0.00 88 1020.1
20200923054740 59 74 0.0 0.0 0.00 0.00 0.00 87 1020.0
20200923053741 59 74 0.0 0.0 0.00 0.00 0.00 87 1020.2
20200923052739 59 74 0.0 0.0 0.00 0.00 0.00 86 1020.3
20200923051739 59 73 0.0 0.0 0.00 0.00 0.00 87 1020.3
20200923050738 59 73 0.0 0.0 0.00 0.00 0.00 86 1020.4
20200923045740 59 73 0.0 0.0 0.00 0.00 0.00 85 1020.4
20200923044738 59 72 0.0 0.0 0.00 0.00 0.00 86 1020.4
20200923043749 59 70 0.0 0.0 0.00 0.00 0.00 86 1020.5
20200923042738 59 70 0.0 0.0 0.00 0.00 0.00 86 1020.5
20200923041740 59 61 0.0 0.0 0.00 0.00 0.00 87 1020.5
20200923040738 59 68 0.0 0.0 0.00 0.00 0.00 85 1020.4
20200923035739 59 68 0.0 0.0 0.00 0.00 0.00 86 1020.5
20200923034738 59 76 0.0 0.0 0.00 0.00 0.00 84 1020.5
20200923033741 59 80 0.0 0.0 0.00 0.00 0.00 85 1020.5
20200923032738 60 80 0.0 0.0 0.00 0.00 0.00 84 1020.6
20200923031738 60 64 0.0 0.0 0.00 0.00 0.00 85 1020.6
20200923030738 60 72 0.0 0.0 0.00 0.00 0.00 84 1020.5
20200923025928 60 142 0.0 0.0 0.00 0.00 0.00 83 1020.5
20200923025738 60 142 0.0 0.0 0.00 0.00 0.00 83 1020.5
20200923024855 60 143 0.0 0.0 0.00 0.00 0.00 82 1020.4
20200923024751 60 143 0.0 0.0 0.00 0.00 0.00 82 1020.4
20200923024014 60 133 0.0 0.0 0.00 0.00 0.00 83 1020.6
20200923023743 60 133 0.0 0.0 0.00 0.00 0.00 83 1020.6
20200923022856 60 125 0.0 0.0 0.00 0.00 0.00 83 1020.8
20200923022738 60 125 0.0 0.0 0.00 0.00 0.00 83 1020.8
20200923021935 60 125 0.0 0.0 0.00 0.00 0.00 85 1020.7
20200923021738 60 125 0.0 0.0 0.00 0.00 0.00 85 1020.7
20200923020937 60 149 0.0 0.0 0.00 0.00 0.00 82 1020.6
20200923020753 60 149 0.0 0.0 0.00 0.00 0.00 82 1020.6
20200923015901 60 140 0.0 0.0 0.00 0.00 0.00 82 1020.6
20200923015740 60 140 0.0 0.0 0.00 0.00 0.00 82 1020.6
20200923014828 60 141 0.0 1.0 0.00 0.00 0.00 83 1020.8
20200923014742 60 141 0.0 1.0 0.00 0.00 0.00 83 1020.8
20200923014033 60 153 0.0 0.0 0.00 0.00 0.00 82 1020.6
20200923013738 60 153 0.0 0.0 0.00 0.00 0.00 82 1020.6
20200923012931 60 145 0.0 1.0 0.00 0.00 0.00 82 1020.8
20200923012739 60 145 0.0 1.0 0.00 0.00 0.00 82 1020.8
20200923011957 60 142 0.0 1.0 0.00 0.00 0.00 83 1020.7
20200923011741 60 142 0.0 1.0 0.00 0.00 0.00 83 1020.7
20200923011007 60 141 0.0 1.0 0.00 0.00 0.00 83 1020.7
20200923010739 60 141 0.0 1.0 0.00 0.00 0.00 83 1020.7
20200923005926 60 140 0.0 0.0 0.00 0.00 0.00 83 1020.7
20200923005838 60 140 0.0 0.0 0.00 0.00 0.00 83 1020.7
20200923005738 60 140 0.0 0.0 0.00 0.00 0.00 83 1020.7
20200923004850 60 140 0.0 1.0 0.00 0.00 0.00 83 1020.8
20200923004739 60 140 0.0 1.0 0.00 0.00 0.00 83 1020.8
20200923003859 61 140 0.0 0.0 0.00 0.00 0.00 83 1020.9
20200923003739 61 140 0.0 0.0 0.00 0.00 0.00 83 1020.9
20200923002858 61 141 0.0 1.0 0.00 0.00 0.00 83 1020.9
20200923002739 61 141 0.0 1.0 0.00 0.00 0.00 83 1020.9
20200923001912 61 141 0.0 1.0 0.00 0.00 0.00 82 1021.0
20200923001839 61 141 0.0 1.0 0.00 0.00 0.00 82 1021.0
20200923001738 61 141 0.0 1.0 0.00 0.00 0.00 82 1021.0
20200923000920 61 139 0.0 0.0 0.00 0.00 0.00 83 1021.1
20200923000738 61 139 0.0 0.0 0.00 0.00 0.00 83 1021.1
20200922235913 61 139 0.0 1.0 0.00 0.00 0.00 82 1021.1
20200922235739 61 139 0.0 1.0 0.00 0.00 0.00 82 1021.1
20200922234843 61 139 0.0 1.0 0.00 0.00 0.00 81 1020.9
20200922234738 61 139 0.0 1.0 0.00 0.00 0.00 81 1020.9
20200922233833 62 137 0.0 1.0 0.00 0.00 0.00 81 1020.9
20200922233741 62 137 0.0 1.0 0.00 0.00 0.00 81 1020.9
20200922232906 62 136 0.0 0.0 0.00 0.00 0.00 81 1021.0
20200922232829 62 136 0.0 0.0 0.00 0.00 0.00 81 1021.0
20200922232739 62 136 0.0 0.0 0.00 0.00 0.00 81 1021.0
20200922231910 62 134 0.0 1.0 0.00 0.00 0.00 81 1020.9
20200922231747 62 134 0.0 1.0 0.00 0.00 0.00 81 1020.9
20200922230839 62 133 0.0 1.0 0.00 0.00 0.00 81 1020.9
20200922230738 62 133 0.0 1.0 0.00 0.00 0.00 81 1020.9
20200922225740 63 151 0.0 1.0 0.00 0.00 0.00 80 1020.9
20200922224930 63 136 0.0 1.0 0.00 0.00 0.00 82 1021.0
20200922224741 63 136 0.0 1.0 0.00 0.00 0.00 82 1021.0
20200922223741 63 132 0.0 1.0 0.00 0.00 0.00 81 1020.8
20200922222817 64 132 0.0 0.0 0.00 0.00 0.00 80 1021.0
20200922222741 64 132 0.0 0.0 0.00 0.00 0.00 80 1021.0
20200922221909 64 132 0.0 0.0 0.00 0.00 0.00 80 1021.0
20200922221738 64 132 0.0 0.0 0.00 0.00 0.00 80 1021.0
20200922220845 64 132 0.0 0.0 0.00 0.00 0.00 77 1021.2
20200922220749 64 132 0.0 0.0 0.00 0.00 0.00 77 1021.2
20200922215826 64 132 0.0 0.0 0.00 0.00 0.00 78 1021.2
20200922215741 64 132 0.0 0.0 0.00 0.00 0.00 78 1021.2
20200922214932 64 132 0.0 0.0 0.00 0.00 0.00 80 1021.2
20200922214739 64 132 0.0 0.0 0.00 0.00 0.00 80 1021.2
20200922213916 65 132 0.0 0.0 0.00 0.00 0.00 78 1021.2
20200922213744 65 132 0.0 0.0 0.00 0.00 0.00 78 1021.2
20200922212908 66 132 0.0 0.0 0.00 0.00 0.00 74 1021.0
20200922212739 66 132 0.0 0.0 0.00 0.00 0.00 74 1021.0
20200922211922 67 132 0.0 0.0 0.00 0.00 0.00 72 1021.0
20200922211739 67 132 0.0 0.0 0.00 0.00 0.00 72 1021.0
20200922210950 67 132 0.0 0.0 0.00 0.00 0.00 68 1021.2
20200922210742 67 132 0.0 0.0 0.00 0.00 0.00 68 1021.2
20200922210004 67 132 0.0 0.0 0.00 0.00 0.00 68 1021.2
20200922205739 67 132 0.0 0.0 0.00 0.00 0.00 68 1021.2
20200922205012 67 132 0.0 0.0 0.00 0.00 0.00 68 1021.5
20200922204738 67 132 0.0 0.0 0.00 0.00 0.00 68 1021.5
20200922203856 68 131 0.0 1.0 0.00 0.00 0.00 65 1021.5
20200922203740 68 131 0.0 1.0 0.00 0.00 0.00 65 1021.5
20200922202924 68 134 0.0 0.0 0.00 0.00 0.00 61 1021.6
20200922202741 68 134 0.0 0.0 0.00 0.00 0.00 61 1021.6
20200922201928 68 155 0.0 1.0 0.00 0.00 0.00 60 1021.7
20200922201742 68 155 0.0 1.0 0.00 0.00 0.00 60 1021.7
20200922201016 68 142 0.0 2.0 0.00 0.00 0.00 65 1021.9
20200922200739 68 142 0.0 2.0 0.00 0.00 0.00 65 1021.9
20200922195958 70 131 0.0 1.0 0.00 0.00 0.00 61 1022.0
20200922195738 70 131 0.0 1.0 0.00 0.00 0.00 61 1022.0
20200922194956 69 139 0.0 1.0 0.00 0.00 0.00 62 1022.0
20200922194738 69 139 0.0 1.0 0.00 0.00 0.00 62 1022.0
20200922193903 67 133 0.0 1.0 0.00 0.00 0.00 64 1022.3
20200922193738 67 133 0.0 1.0 0.00 0.00 0.00 64 1022.3
20200922192738 67 138 0.0 1.0 0.00 0.00 0.00 64 1022.4
20200922191905 67 121 0.0 1.0 0.00 0.00 0.00 68 1022.4
20200922191744 67 121 0.0 1.0 0.00 0.00 0.00 68 1022.4
20200922190950 67 129 0.0 1.0 0.00 0.00 0.00 66 1022.7
20200922190738 67 129 0.0 1.0 0.00 0.00 0.00 66 1022.7
20200922185956 69 151 0.0 2.0 0.00 0.00 0.00 63 1022.7
20200922185740 69 151 0.0 2.0 0.00 0.00 0.00 63 1022.7
20200922184943 69 134 0.0 1.0 0.00 0.00 0.00 63 1023.0
20200922184738 69 134 0.0 1.0 0.00 0.00 0.00 63 1023.0
20200922183746 69 154 0.0 2.0 0.00 0.00 0.00 63 1023.0
20200922183103 70 97 0.0 1.0 0.00 0.00 0.00 61 1023.1
20200922182738 70 97 0.0 1.0 0.00 0.00 0.00 61 1023.1
20200922182042 69 148 0.0 1.0 0.00 0.00 0.00 62 1023.3
20200922181740 69 148 0.0 1.0 0.00 0.00 0.00 62 1023.3
20200922180738 70 151 0.0 1.0 0.00 0.00 0.00 62 1023.4
20200922175916 70 96 0.0 1.0 0.00 0.00 0.00 63 1023.6
20200922175738 70 96 0.0 1.0 0.00 0.00 0.00 63 1023.6
20200922175009 69 116 0.0 2.0 0.00 0.00 0.00 62 1023.9
20200922174744 69 116 0.0 2.0 0.00 0.00 0.00 62 1023.9
20200922174056 68 133 0.0 2.0 0.00 0.00 0.00 65 1024.1
20200922173740 68 133 0.0 2.0 0.00 0.00 0.00 65 1024.1
20200922173028 67 114 0.0 2.0 0.00 0.00 0.00 65 1024.4
20200922172740 67 114 0.0 2.0 0.00 0.00 0.00 65 1024.4
20200922171741 68 89 0.0 2.0 0.00 0.00 0.00 63 1024.5
20200922171028 66 76 0.0 2.0 0.00 0.00 0.00 65 1024.7
20200922170943 66 76 0.0 2.0 0.00 0.00 0.00 65 1024.7
20200922170744 66 76 0.0 2.0 0.00 0.00 0.00 65 1024.7
20200922165903 68 146 0.0 2.0 0.00 0.00 0.00 64 1024.7
20200922165738 68 146 0.0 2.0 0.00 0.00 0.00 64 1024.7
20200922165009 68 62 0.0 3.0 0.00 0.00 0.00 63 1024.8
20200922164738 68 62 0.0 3.0 0.00 0.00 0.00 63 1024.8
20200922163739 67 81 0.0 3.0 0.00 0.00 0.00 64 1024.9
20200922162910 64 182 1.0 2.0 0.00 0.00 0.00 68 1025.3
20200922162739 64 182 1.0 2.0 0.00 0.00 0.00 68 1025.3
20200922161920 64 133 0.0 2.0 0.00 0.00 0.00 69 1025.4
20200922161738 64 133 0.0 2.0 0.00 0.00 0.00 69 1025.4
20200922160932 64 163 0.0 2.0 0.00 0.00 0.00 69 1025.7
20200922160738 64 163 0.0 2.0 0.00 0.00 0.00 69 1025.7
20200922160025 63 128 1.0 3.0 0.00 0.00 0.00 70 1025.7
20200922155739 63 128 1.0 3.0 0.00 0.00 0.00 70 1025.7
20200922155007 63 314 2.0 4.0 0.00 0.00 0.00 69 1025.7
20200922154738 63 314 2.0 4.0 0.00 0.00 0.00 69 1025.7
20200922153738 64 305 1.0 5.0 0.00 0.00 0.00 68 1026.0
20200922153018 63 21 1.0 5.0 0.00 0.00 0.00 69 1026.0
20200922152738 63 21 1.0 5.0 0.00 0.00 0.00 69 1026.0
20200922151741 62 16 2.0 4.0 0.00 0.00 0.00 70 1026.1
20200922150929 62 308 1.0 3.0 0.00 0.00 0.00 71 1026.1
20200922150738 62 308 1.0 3.0 0.00 0.00 0.00 71 1026.1
20200922145841 61 61 1.0 2.0 0.00 0.00 0.00 73 1026.1
20200922145738 61 61 1.0 2.0 0.00 0.00 0.00 73 1026.1
20200922144952 62 49 1.0 3.0 0.00 0.00 0.00 73 1026.0
20200922144738 62 49 1.0 3.0 0.00 0.00 0.00 73 1026.0
20200922143738 61 48 1.0 3.0 0.00 0.00 0.00 74 1025.9
20200922142929 60 127 1.0 2.0 0.00 0.00 0.00 75 1026.0
20200922142739 60 127 1.0 2.0 0.00 0.00 0.00 75 1026.0
20200922141852 60 44 1.0 4.0 0.00 0.00 0.00 74 1026.1
20200922141742 60 44 1.0 4.0 0.00 0.00 0.00 74 1026.1
20200922140830 58 331 1.0 3.0 0.00 0.00 0.00 77 1026.2
20200922140745 58 331 1.0 3.0 0.00 0.00 0.00 77 1026.2
20200922135834 58 93 1.0 2.0 0.00 0.00 0.00 76 1025.9
20200922135740 58 93 1.0 2.0 0.00 0.00 0.00 76 1025.9
20200922134819 58 55 1.0 2.0 0.00 0.00 0.00 77 1026.0
20200922134738 58 55 1.0 2.0 0.00 0.00 0.00 77 1026.0
20200922133739 56 136 0.0 2.0 0.00 0.00 0.00 79 1025.9
20200922132858 56 73 1.0 2.0 0.00 0.00 0.00 79 1026.1
20200922132738 56 73 1.0 2.0 0.00 0.00 0.00 79 1026.1
20200922131913 55 115 0.0 2.0 0.00 0.00 0.00 84 1026.0
20200922131841 55 115 0.0 2.0 0.00 0.00 0.00 84 1026.0
20200922131740 55 115 0.0 2.0 0.00 0.00 0.00 84 1026.0
20200922130857 52 119 0.0 1.0 0.00 0.00 0.00 86 1026.2
20200922130738 52 119 0.0 1.0 0.00 0.00 0.00 86 1026.2
20200922125900 51 121 0.0 1.0 0.00 0.00 0.00 88 1026.2
20200922125739 51 121 0.0 1.0 0.00 0.00 0.00 88 1026.2
20200922124924 51 115 0.0 1.0 0.00 0.00 0.00 88 1026.0
20200922124738 51 115 0.0 1.0 0.00 0.00 0.00 88 1026.0
20200922123918 52 103 0.0 1.0 0.00 0.00 0.00 86 1026.1
20200922123738 52 103 0.0 1.0 0.00 0.00 0.00 86 1026.1
20200922122930 52 103 0.0 1.0 0.00 0.00 0.00 87 1026.0
20200922122741 52 103 0.0 1.0 0.00 0.00 0.00 87 1026.0
20200922121748 52 103 0.0 1.0 0.00 0.00 0.00 86 1026.0
20200922120931 51 103 0.0 1.0 0.00 0.00 0.00 86 1026.0
20200922120738 51 103 0.0 1.0 0.00 0.00 0.00 86 1026.0
20200922115950 51 103 0.0 1.0 0.00 0.00 0.00 88 1025.8
20200922115739 51 103 0.0 1.0 0.00 0.00 0.00 88 1025.8
20200922114738 51 103 0.0 1.0 0.00 0.00 0.00 88 1025.8
20200922113848 50 103 0.0 1.0 0.00 0.00 0.00 89 1025.8
20200922113738 50 103 0.0 1.0 0.00 0.00 0.00 89 1025.8
20200922112740 50 103 0.0 0.0 0.00 0.00 0.00 89 1025.7
20200922111915 51 103 0.0 0.0 0.00 0.00 0.00 88 1025.7
20200922111738 51 103 0.0 0.0 0.00 0.00 0.00 88 1025.7
20200922110929 51 103 0.0 1.0 0.00 0.00 0.00 88 1025.6
20200922110739 51 103 0.0 1.0 0.00 0.00 0.00 88 1025.6